Погода в Вайново

Россия / Архангельская область     64°19′39″N   41°25′43″E
темп.,
°C
ветер,
м/с
пор.,
м/с
влажн.,
%
обл.,
%
осадки,
мм/ч
давл.,
гПа
погр.,
м
25 июля, вс
вс2500:00+10зюз2670100 0.0 1010179
03:00+7зюз27838 0.0 1010146
06:00+11зюз31063100 0.0 1010438
09:00+15з476072 0.0 10101007
12:00+15зсз477795 0.7 10111038
15:00+17сз6105456 2.1 10121686
18:00+17сз4125011 0.1 10121451
21:00+10зсз25755 0.1 1014117
26 июля, пн
пн2600:00+7зсз11935 0.0 101410
03:00+9юз1381100 0.0 101489
06:00+10ююз2390100 0.2 101494
09:00+12сз258697 0.3 1014333
12:00+18сз594169 0.0 10142324
15:00+16сз710454 0.0 10161583
18:00+14сз57488 0.0 10171565
21:00+9сз36685 0.0 1018206
27 июля, вт
вт2700:00+7зсз31082100 0.0 1019303
03:00+10зсз4117599 0.0 1019671
06:00+12сз410740 0.0 1019743
09:00+15сз59565 0.0 10191143
12:00+17сз610450 0.0 10181452
15:00+18сз68425 0.0 10181440
18:00+17сз46475 0.0 10171018
21:00+12сз27725 0.0 1017203
28 июля, ср
ср2800:00+8ссз22897 0.0 101723
03:00+6зюз119462 0.0 101610
06:00+10юз1673100 0.0 1014205
09:00+13юз3773100 0.1 1010409
12:00+18зюз355820 0.7 1008972
15:00+21сз266017 0.8 10051236
18:00+19ссв456124 0.0 1006892
21:00+12всв119420 0.0 100612
29 июля, чт
чт2900:00+9всв259812 0.0 1006102
03:00+8в2399100 0.0 100563
06:00+11вюв2491100 0.0 1004184
09:00+15юв356791 0.1 1003587
12:00+20ююв4547100 0.0 10011136
15:00+21ю355392 0.1 10001188
18:00+19в2582100 1.1 997148
21:00+16ююв3799100 14.2 996288